Weather History for Doha, Qatar

Change the Weather History Date:

Thursday, June 13, 2013

  Actual Average Record
Temperature  
Mean Temperature 96 °F -  
Max Temperature 106 °F 106 °F 111 °F (1999)
Min Temperature 86 °F 83 °F 78 °F (1997)
Cooling Degree Days 31    
Growing Degree Days 46 (Base 50)    
Moisture  
Dew Point 54 °F    
Average Humidity 28    
Maximum Humidity 51    
Minimum Humidity 9    
Precipitation  
Precipitation 0.00 in 0.00 in - ()
Sea Level Pressure  
Sea Level Pressure 29.47 in    
Wind  
Wind Speed 9 mph ()    
Max Wind Speed 20 mph    
Max Gust Speed 29 mph    
Visibility 4.0 miles    
Events      
Averages and records for this station are not official NWS values.
T = Trace of Precipitation, MM = Missing Value Source: Averaged Metar Reports

Daily Weather History Graph

Daily Weather History Graph

Search for Another Location

Airport:

Trip Planner

Search our weather history database for the weather conditions in past years. The results will help you decide how hot, cold, wet, or windy it might be!

Date:

Astronomy

Jun. 13, 2013 Rise Set
Actual Time 4:42 AM AST 6:24 PM AST
Civil Twilight 4:17 AM AST 6:50 PM AST
Nautical Twilight 3:46 AM AST 7:21 PM AST
Astronomical Twilight 3:13 AM AST 7:54 PM AST
Moon 8:37 AM AST (6/13) 9:42 PM AST (6/13)
Length of Visible Light 14h 33m
Length of Day
13h 41m
Waxing Crescent, 19% of the Moon is Illuminated
Jun 13
Waxing Crescent
Jun 16
First Quarter
Jun 23
Full
Jun 30
Last Quarter
Jul 8
New

Hourly Weather History & Observations

Time (AST) Temp. Heat Index Dew Point Humidity Pressure Visibility Wind Dir Wind Speed Gust Speed Precip Events Conditions
12:00 AM 89.6 °F - 50.0 °F 26% 29.47 in 4.3 mi West 6.9 mph - N/A   Unknown
12:30 AM 87.8 °F 86.1 °F 55.4 °F 33% 29.47 in 4.3 mi Variable 5.8 mph - N/A   Unknown
1:00 AM 87.8 °F 86.5 °F 57.2 °F 35% 29.47 in 4.3 mi West 6.9 mph - N/A   Unknown
2:00 AM 87.8 °F 85.7 °F 53.6 °F 31% 29.44 in 4.3 mi West 5.8 mph - N/A   Unknown
2:30 AM 87.8 °F 85.7 °F 53.6 °F 31% 29.44 in 4.3 mi West 8.1 mph - N/A   Unknown
3:00 AM 88 °F - 53 °F 20% 29.47 in 4 mi WNW 9.2 mph - -   Widespread Dust
3:00 AM 87.8 °F 85.7 °F 53.6 °F 31% 29.44 in 4.3 mi WNW 9.2 mph - N/A   Unknown
4:00 AM 86.0 °F 84.2 °F 53.6 °F 33% 29.44 in 4.3 mi WNW 8.1 mph - N/A   Unknown
4:30 AM 87.8 °F - 51.8 °F 29% 29.44 in 3.7 mi West 8.1 mph - N/A   Unknown
5:00 AM 87.8 °F - 51.8 °F 29% 29.47 in 3.1 mi WNW 10.4 mph - N/A   Unknown
6:00 AM 89.6 °F - 48.2 °F 24% 29.47 in 3.1 mi North - - N/A   Unknown
6:30 AM 91.4 °F - 50.0 °F 24% 29.50 in 2.5 mi NW 17.3 mph - N/A   Widespread Dust
7:00 AM 91.4 °F - 50.0 °F 24% 29.50 in 2.2 mi NW 13.8 mph - N/A   Widespread Dust
7:30 AM 93.2 °F - 50.0 °F 23% 29.50 in 2.2 mi NW 16.1 mph - N/A   Unknown
8:00 AM 95.0 °F - 50.0 °F 22% 29.50 in 2.2 mi NW 13.8 mph - N/A   Unknown
8:30 AM 96.8 °F - 48.2 °F 19% 29.50 in 2.5 mi NW 11.5 mph - N/A   Unknown
9:00 AM 98 °F - 49 °F 11% 29.52 in 4 mi NW 12.7 mph - -   Widespread Dust
9:00 AM 98.6 °F - 48.2 °F 18% 29.50 in 4.3 mi NW 12.7 mph 25.3 mph N/A   Unknown
9:30 AM 98.6 °F - 48.2 °F 18% 29.50 in 5.0 mi NNW 18.4 mph - N/A   Unknown
10:00 AM 100.4 °F - 46.4 °F 16% 29.50 in 5.6 mi NNW 17.3 mph - N/A   Unknown
10:30 AM 102.2 °F - 44.6 °F 14% 29.50 in - NNW 18.4 mph - N/A   Clear
11:00 AM 102.2 °F - 44.6 °F 14% 29.50 in - NW 19.6 mph - N/A   Clear
11:30 AM 102.2 °F - 42.8 °F 13% 29.47 in - NW 16.1 mph - N/A   Clear
12:00 PM 102.2 °F - 41.0 °F 12% 29.47 in - NNW 16.1 mph 27.6 mph N/A   Clear
12:30 PM 104.0 °F - 44.6 °F 13% 29.47 in - NNW 15.0 mph - N/A   Clear
1:00 PM 104.0 °F - 41.0 °F 12% 29.47 in - NNW 17.3 mph 28.8 mph N/A   Clear
1:30 PM 104.0 °F - 37.4 °F 10% 29.47 in - NNW 16.1 mph - N/A   Clear
2:00 PM 104.0 °F - 35.6 °F 9% 29.47 in - NW 13.8 mph - N/A   Clear
2:30 PM 104.0 °F - 48.2 °F 15% 29.44 in - NNW 13.8 mph - N/A   Clear
3:00 PM 101 °F - 53 °F 12% 29.47 in 7 mi NNE 13.8 mph - -   Clear
3:00 PM 100.4 °F 98.4 °F 53.6 °F 21% 29.44 in - NNE 13.8 mph - N/A   Clear
4:00 PM 95.0 °F 97.0 °F 64.4 °F 36% 29.44 in - North 11.5 mph - N/A   Clear
4:30 PM 95.0 °F 98.5 °F 66.2 °F 39% 29.44 in - North 11.5 mph - N/A   Clear
5:00 PM 93.2 °F 97.7 °F 68.0 °F 44% 29.44 in - North 10.4 mph - N/A   Clear
5:30 PM 91.4 °F 95.4 °F 68.0 °F 46% 29.44 in - North 10.4 mph - N/A   Clear
6:00 PM 91.4 °F 93.2 °F 64.4 °F 41% 29.44 in - North 10.4 mph - N/A   Clear
7:00 PM 91.4 °F 92.1 °F 62.6 °F 38% 29.44 in - North 4.6 mph - N/A   Clear
8:00 PM 87.8 °F 90.4 °F 66.2 °F 49% 29.47 in - North 4.6 mph - N/A   Clear
9:00 PM 89 °F - 63 °F 32% 29.49 in 7 mi North 4.6 mph - -   Clear
9:00 PM 89.6 °F 90.1 °F 62.6 °F 40% 29.47 in - North 4.6 mph - N/A   Clear
9:30 PM 87.8 °F 90.4 °F 66.2 °F 49% 29.47 in - Variable 1.2 mph - N/A   Clear
10:00 PM 86.0 °F 88.2 °F 66.2 °F 51% 29.47 in - Variable 2.3 mph - N/A   Clear
10:30 PM 86.0 °F 87.3 °F 64.4 °F 48% 29.47 in - Calm Calm - N/A   Clear
11:00 PM 87.8 °F 89.4 °F 64.4 °F 46% 29.47 in - SSW 4.6 mph - N/A   Clear
11:30 PM 86.0 °F 86.1 °F 60.8 °F 43% 29.47 in - SSW 4.6 mph - N/A   Clear